Simultaneous Nadir Overpasses (SNOs) Predictions

Prediction of SNOs between GOES-15 and TERRA Satellite Orbit:

Table of predicted SNOs for the next 14.0 days since TLE Epoch: 11/6/2021
Index Date Time (GOES-15) GOES-15 Lat,Lon TERRA Lat,Lon Distance(km) Time Diff (sec)
1 11/06/2021 07:00:58 0.30,-128.45 0.24,-128.64 21.78 80
2 11/08/2021 06:46:05 0.30,-128.45 0.90,-125.69 314.41 80
3 11/08/2021 19:09:59 -0.28,-128.46 0.20,-130.85 271.52 80
4 11/10/2021 18:55:05 -0.28,-128.45 -0.40,-127.89 64.19 80
5 11/12/2021 18:42:52 -0.28,-128.45 -1.01,-124.93 399.89 80
6 11/13/2021 07:06:55 0.26,-128.44 -0.07,-130.13 190.70 80
7 11/15/2021 06:52:01 0.26,-128.44 0.55,-127.17 144.98 80
8 11/15/2021 19:15:56 -0.25,-128.44 0.54,-132.32 441.12 80
9 11/17/2021 06:39:47 0.27,-128.43 1.17,-124.21 480.37 80
10 11/17/2021 19:03:42 -0.25,-128.43 -0.08,-129.37 105.84 80
11 11/19/2021 18:48:47 -0.25,-128.42 -0.65,-126.40 228.99 80
